owner,sensor,date,latitude,longitude,vertical_datum,sea_water_practical_salinity,qcFlag 
DISL,ioos:station:DISL:PPTA:1,2012-01-01T00:00:00Z,30.2791,-87.5561,0.4,99.0,11144222 
DISL,ioos:station:DISL:PPTA:1,2012-01-01T00:30:00Z,30.2791,-87.5561,0.4,99.0,11144222 
DISL,ioos:station:DISL:PPTA:1,2012-01-01T01:00:00Z,30.2791,-87.5561,0.4,99.0,11144222 
DISL,ioos:station:DISL:PPTA:1,2012-01-01T01:30:00Z,30.2791,-87.5561,0.4,99.0,11144222 
DISL,ioos:station:DISL:PPTA:1,2012-01-01T02:00:00Z,30.2791,-87.5561,0.4,99.0,11144222 
DISL,ioos:station:DISL:PPTA:1,2012-01-01T02:30:00Z,30.2791,-87.5561,0.4,99.0,11144222 
DISL,ioos:station:DISL:PPTA:1,2012-01-01T03:00:00Z,30.2791,-87.5561,0.4,99.0,11144222 
DISL,ioos:station:DISL:PPTA:1,2012-01-01T03:30:00Z,30.2791,-87.5561,0.4,99.0,11144222 
DISL,ioos:station:DISL:PPTA:1,2012-01-01T04:00:00Z,30.2791,-87.5561,0.4,99.0,11144222 
DISL,ioos:station:DISL:PPTA:1,2012-01-01T04:30:00Z,30.2791,-87.5561,0.4,99.0,11144222 
DISL,ioos:station:DISL:PPTA:1,2012-01-01T05:00:00Z,30.2791,-87.5561,0.4,99.0,11144222 
DISL,ioos:station:DISL:PPTA:1,2012-01-01T05:30:00Z,30.2791,-87.5561,0.4,99.0,11144222 
DISL,ioos:station:DISL:PPTA:1,2012-01-01T06:00:00Z,30.2791,-87.5561,0.4,99.0,11144222 
DISL,ioos:station:DISL:PPTA:1,2012-01-01T06:30:00Z,30.2791,-87.5561,1.151,29.65,1111122 
DISL,ioos:station:DISL:PPTA:1,2012-01-01T07:00:00Z,30.2791,-87.5561,1.157,29.07,1111122 
DISL,ioos:station:DISL:PPTA:1,2012-01-01T07:30:00Z,30.2791,-87.5561,1.142,28.45,1111122 
DISL,ioos:station:DISL:PPTA:1,2012-01-01T08:00:00Z,30.2791,-87.5561,1.143,28.11,1111122 
DISL,ioos:station:DISL:PPTA:1,2012-01-01T08:30:00Z,30.2791,-87.5561,1.135,28.5,1111122 
DISL,ioos:station:DISL:PPTA:1,2012-01-01T09:00:00Z,30.2791,-87.5561,1.128,28.19,1111122 
DISL,ioos:station:DISL:PPTA:1,2012-01-01T09:30:00Z,30.2791,-87.5561,1.113,28.04,1111122 
DISL,ioos:station:DISL:PPTA:1,2012-01-01T10:00:00Z,30.2791,-87.5561,1.097,27.81,1111122 
DISL,ioos:station:DISL:PPTA:1,2012-01-01T10:30:00Z,30.2791,-87.5561,1.109,27.22,1111122 
DISL,ioos:station:DISL:PPTA:1,2012-01-01T11:00:00Z,30.2791,-87.5561,1.098,27.09,1111122 
DISL,ioos:station:DISL:PPTA:1,2012-01-01T11:30:00Z,30.2791,-87.5561,1.096,26.81,1111122 
DISL,ioos:station:DISL:PPTA:1,2012-01-01T12:00:00Z,30.2791,-87.5561,1.107,26.45,1111122 
DISL,ioos:station:DISL:PPTA:1,2012-01-01T12:30:00Z,30.2791,-87.5561,1.091,27.38,1111122 
DISL,ioos:station:DISL:PPTA:1,2012-01-01T13:00:00Z,30.2791,-87.5561,1.094,28.8,1111122 
DISL,ioos:station:DISL:PPTA:1,2012-01-01T13:30:00Z,30.2791,-87.5561,1.098,28.04,1111122 
DISL,ioos:station:DISL:PPTA:1,2012-01-01T14:00:00Z,30.2791,-87.5561,1.091,27.51,1111122 
DISL,ioos:station:DISL:PPTA:1,2012-01-01T14:30:00Z,30.2791,-87.5561,1.086,27.73,1111122 
DISL,ioos:station:DISL:PPTA:1,2012-01-01T15:00:00Z,30.2791,-87.5561,1.076,29.21,1111122 
DISL,ioos:station:DISL:PPTA:1,2012-01-01T15:30:00Z,30.2791,-87.5561,1.1,28.35,1111122 
DISL,ioos:station:DISL:PPTA:1,2012-01-01T16:00:00Z,30.2791,-87.5561,1.087,27.25,1111122 
DISL,ioos:station:DISL:PPTA:1,2012-01-01T16:30:00Z,30.2791,-87.5561,1.095,29.06,1111122 
DISL,ioos:station:DISL:PPTA:1,2012-01-01T17:00:00Z,30.2791,-87.5561,1.103,29.42,1111122 
DISL,ioos:station:DISL:PPTA:1,2012-01-01T17:30:00Z,30.2791,-87.5561,1.108,32.36,1111122 
DISL,ioos:station:DISL:PPTA:1,2012-01-01T18:00:00Z,30.2791,-87.5561,1.123,32.03,1111122 
DISL,ioos:station:DISL:PPTA:1,2012-01-01T18:30:00Z,30.2791,-87.5561,1.136,31.74,1111122 
DISL,ioos:station:DISL:PPTA:1,2012-01-01T19:00:00Z,30.2791,-87.5561,1.138,33.16,1111122 
DISL,ioos:station:DISL:PPTA:1,2012-01-01T19:30:00Z,30.2791,-87.5561,1.151,31.46,1111122 
DISL,ioos:station:DISL:PPTA:1,2012-01-01T20:00:00Z,30.2791,-87.5561,1.154,33.04,1111122 
DISL,ioos:station:DISL:PPTA:1,2012-01-01T20:30:00Z,30.2791,-87.5561,1.132,31.98,1111122 
DISL,ioos:station:DISL:PPTA:1,2012-01-01T21:00:00Z,30.2791,-87.5561,1.154,31.77,1111122 
DISL,ioos:station:DISL:PPTA:1,2012-01-01T21:30:00Z,30.2791,-87.5561,1.155,32.58,1111122 
DISL,ioos:station:DISL:PPTA:1,2012-01-01T22:00:00Z,30.2791,-87.5561,1.142,32.53,1111122 
DISL,ioos:station:DISL:PPTA:1,2012-01-01T22:30:00Z,30.2791,-87.5561,1.162,32.67,1111122 
DISL,ioos:station:DISL:PPTA:1,2012-01-01T23:00:00Z,30.2791,-87.5561,1.169,32.79,1111122 
DISL,ioos:station:DISL:PPTA:1,2012-01-01T23:30:00Z,30.2791,-87.5561,1.127,32.5,1111122 
DISL,ioos:station:DISL:PPTA:1,2012-01-02T00:00:00Z,30.2791,-87.5561,1.172,32.88,1111122 
DISL,ioos:station:DISL:PPTA:1,2012-01-02T00:30:00Z,30.2791,-87.5561,1.107,32.32,1111122 
DISL,ioos:station:DISL:PPTA:1,2012-01-02T01:00:00Z,30.2791,-87.5561,1.116,32.27,1111122 
DISL,ioos:station:DISL:PPTA:1,2012-01-02T01:30:00Z,30.2791,-87.5561,1.11,31.32,1111122 
DISL,ioos:station:DISL:PPTA:1,2012-01-02T02:00:00Z,30.2791,-87.5561,1.082,31.51,1111122 
DISL,ioos:station:DISL:PPTA:1,2012-01-02T02:30:00Z,30.2791,-87.5561,1.047,31.66,1111122 
DISL,ioos:station:DISL:PPTA:1,2012-01-02T03:00:00Z,30.2791,-87.5561,1.025,31.61,1111122 
DISL,ioos:station:DISL:PPTA:1,2012-01-02T03:30:00Z,30.2791,-87.5561,1.02,29.89,1111122 
DISL,ioos:station:DISL:PPTA:1,2012-01-02T04:00:00Z,30.2791,-87.5561,1.006,30.15,1111122 
DISL,ioos:station:DISL:PPTA:1,2012-01-02T04:30:00Z,30.2791,-87.5561,0.984,29.77,1111122 
DISL,ioos:station:DISL:PPTA:1,2012-01-02T05:00:00Z,30.2791,-87.5561,0.963,29.36,1111122 
DISL,ioos:station:DISL:PPTA:1,2012-01-02T05:30:00Z,30.2791,-87.5561,0.948,29.02,1111122 
DISL,ioos:station:DISL:PPTA:1,2012-01-02T06:00:00Z,30.2791,-87.5561,0.945,29.01,1111122 
DISL,ioos:station:DISL:PPTA:1,2012-01-02T06:30:00Z,30.2791,-87.5561,0.942,28.85,1111122 
DISL,ioos:station:DISL:PPTA:1,2012-01-02T07:00:00Z,30.2791,-87.5561,0.91,28.39,1111122 
DISL,ioos:station:DISL:PPTA:1,2012-01-02T07:30:00Z,30.2791,-87.5561,0.918,27.83,1111122 
DISL,ioos:station:DISL:PPTA:1,2012-01-02T08:00:00Z,30.2791,-87.5561,0.912,27.09,1111122 
DISL,ioos:station:DISL:PPTA:1,2012-01-02T08:30:00Z,30.2791,-87.5561,0.911,26.81,1111122 
DISL,ioos:station:DISL:PPTA:1,2012-01-02T09:00:00Z,30.2791,-87.5561,0.894,26.58,1111122 
DISL,ioos:station:DISL:PPTA:1,2012-01-02T09:30:00Z,30.2791,-87.5561,0.873,26.28,1111122 
DISL,ioos:station:DISL:PPTA:1,2012-01-02T10:00:00Z,30.2791,-87.5561,0.848,26.01,1111122 
DISL,ioos:station:DISL:PPTA:1,2012-01-02T10:30:00Z,30.2791,-87.5561,0.837,26.19,1111122 
DISL,ioos:station:DISL:PPTA:1,2012-01-02T11:00:00Z,30.2791,-87.5561,0.838,25.89,1111122 
DISL,ioos:station:DISL:PPTA:1,2012-01-02T11:30:00Z,30.2791,-87.5561,0.861,25.74,1111122 
DISL,ioos:station:DISL:PPTA:1,2012-01-02T12:00:00Z,30.2791,-87.5561,0.913,25.52,1111122 
DISL,ioos:station:DISL:PPTA:1,2012-01-02T12:30:00Z,30.2791,-87.5561,0.905,25.52,1111122 
DISL,ioos:station:DISL:PPTA:1,2012-01-02T13:00:00Z,30.2791,-87.5561,0.89,25.64,1111122 
DISL,ioos:station:DISL:PPTA:1,2012-01-02T13:30:00Z,30.2791,-87.5561,0.901,25.51,1111122 
DISL,ioos:station:DISL:PPTA:1,2012-01-02T14:00:00Z,30.2791,-87.5561,0.899,25.32,1111122 
DISL,ioos:station:DISL:PPTA:1,2012-01-02T14:30:00Z,30.2791,-87.5561,0.902,25.36,1111122 
DISL,ioos:station:DISL:PPTA:1,2012-01-02T15:00:00Z,30.2791,-87.5561,0.928,25.55,1111122 
DISL,ioos:station:DISL:PPTA:1,2012-01-02T15:30:00Z,30.2791,-87.5561,0.937,24.85,1111122 
DISL,ioos:station:DISL:PPTA:1,2012-01-02T16:00:00Z,30.2791,-87.5561,0.932,24.83,1111122 
DISL,ioos:station:DISL:PPTA:1,2012-01-02T16:30:00Z,30.2791,-87.5561,0.941,29.13,1111122 
DISL,ioos:station:DISL:PPTA:1,2012-01-02T17:00:00Z,30.2791,-87.5561,0.958,31.72,1111122 
DISL,ioos:station:DISL:PPTA:1,2012-01-02T17:30:00Z,30.2791,-87.5561,0.97,31.37,1111122 
DISL,ioos:station:DISL:PPTA:1,2012-01-02T18:00:00Z,30.2791,-87.5561,0.967,32.08,1111122 
DISL,ioos:station:DISL:PPTA:1,2012-01-02T18:30:00Z,30.2791,-87.5561,0.987,32.28,1111122 
DISL,ioos:station:DISL:PPTA:1,2012-01-02T19:00:00Z,30.2791,-87.5561,1.005,33.62,1111122 
DISL,ioos:station:DISL:PPTA:1,2012-01-02T19:30:00Z,30.2791,-87.5561,1.013,33.24,1111122 
DISL,ioos:station:DISL:PPTA:1,2012-01-02T20:00:00Z,30.2791,-87.5561,1.033,33.28,1111122 
DISL,ioos:station:DISL:PPTA:1,2012-01-02T20:30:00Z,30.2791,-87.5561,1.044,33.57,1111122 
DISL,ioos:station:DISL:PPTA:1,2012-01-02T21:00:00Z,30.2791,-87.5561,1.029,33.79,1111122 
DISL,ioos:station:DISL:PPTA:1,2012-01-02T21:30:00Z,30.2791,-87.5561,1.026,33.58,1111122 
DISL,ioos:station:DISL:PPTA:1,2012-01-02T22:00:00Z,30.2791,-87.5561,1.013,33.95,1111122 
DISL,ioos:station:DISL:PPTA:1,2012-01-02T22:30:00Z,30.2791,-87.5561,1.013,33.87,1111122 
DISL,ioos:station:DISL:PPTA:1,2012-01-02T23:00:00Z,30.2791,-87.5561,1.027,33.94,1111122 
DISL,ioos:station:DISL:PPTA:1,2012-01-02T23:30:00Z,30.2791,-87.5561,1.031,33.98,1111122 
DISL,ioos:station:DISL:PPTA:1,2012-01-03T00:00:00Z,30.2791,-87.5561,1.05,34.01,1111122 
DISL,ioos:station:DISL:PPTA:1,2012-01-03T00:30:00Z,30.2791,-87.5561,1.047,34.0,1111122 
DISL,ioos:station:DISL:PPTA:1,2012-01-03T01:00:00Z,30.2791,-87.5561,1.018,34.06,1111122 
DISL,ioos:station:DISL:PPTA:1,2012-01-03T01:30:00Z,30.2791,-87.5561,0.982,34.07,1111122 
DISL,ioos:station:DISL:PPTA:1,2012-01-03T02:00:00Z,30.2791,-87.5561,0.932,33.99,1111122 
DISL,ioos:station:DISL:PPTA:1,2012-01-03T02:30:00Z,30.2791,-87.5561,0.91,33.06,1111122 
DISL,ioos:station:DISL:PPTA:1,2012-01-03T03:00:00Z,30.2791,-87.5561,0.871,31.94,1111122 
DISL,ioos:station:DISL:PPTA:1,2012-01-03T03:30:00Z,30.2791,-87.5561,0.824,33.02,1111122 
DISL,ioos:station:DISL:PPTA:1,2012-01-03T04:00:00Z,30.2791,-87.5561,0.811,32.85,1111122 
DISL,ioos:station:DISL:PPTA:1,2012-01-03T04:30:00Z,30.2791,-87.5561,0.78,31.54,1111122 
DISL,ioos:station:DISL:PPTA:1,2012-01-03T05:00:00Z,30.2791,-87.5561,0.748,32.03,1111122 
DISL,ioos:station:DISL:PPTA:1,2012-01-03T05:30:00Z,30.2791,-87.5561,0.751,32.25,1111122 
DISL,ioos:station:DISL:PPTA:1,2012-01-03T06:00:00Z,30.2791,-87.5561,0.744,32.05,1111122 
DISL,ioos:station:DISL:PPTA:1,2012-01-03T06:30:00Z,30.2791,-87.5561,0.756,30.18,1111122 
DISL,ioos:station:DISL:PPTA:1,2012-01-03T07:00:00Z,30.2791,-87.5561,0.765,29.27,1111122 
DISL,ioos:station:DISL:PPTA:1,2012-01-03T07:30:00Z,30.2791,-87.5561,0.749,29.11,1111122 
DISL,ioos:station:DISL:PPTA:1,2012-01-03T08:00:00Z,30.2791,-87.5561,0.726,29.5,1111122 
DISL,ioos:station:DISL:PPTA:1,2012-01-03T08:30:00Z,30.2791,-87.5561,0.721,29.66,1111122 
DISL,ioos:station:DISL:PPTA:1,2012-01-03T09:00:00Z,30.2791,-87.5561,0.694,28.97,1111122 
DISL,ioos:station:DISL:PPTA:1,2012-01-03T09:30:00Z,30.2791,-87.5561,0.693,27.5,1111122 
DISL,ioos:station:DISL:PPTA:1,2012-01-03T10:00:00Z,30.2791,-87.5561,0.675,26.57,1111122 
DISL,ioos:station:DISL:PPTA:1,2012-01-03T10:30:00Z,30.2791,-87.5561,0.663,26.53,1111122 
DISL,ioos:station:DISL:PPTA:1,2012-01-03T11:00:00Z,30.2791,-87.5561,0.671,25.83,1111122 
DISL,ioos:station:DISL:PPTA:1,2012-01-03T11:30:00Z,30.2791,-87.5561,0.669,25.65,1111122 
DISL,ioos:station:DISL:PPTA:1,2012-01-03T12:00:00Z,30.2791,-87.5561,0.685,25.53,1111122 
DISL,ioos:station:DISL:PPTA:1,2012-01-03T12:30:00Z,30.2791,-87.5561,0.712,25.2,1111122 
DISL,ioos:station:DISL:PPTA:1,2012-01-03T13:00:00Z,30.2791,-87.5561,0.725,24.93,1111122 
DISL,ioos:station:DISL:PPTA:1,2012-01-03T13:30:00Z,30.2791,-87.5561,0.724,24.9,1111122 
DISL,ioos:station:DISL:PPTA:1,2012-01-03T14:00:00Z,30.2791,-87.5561,0.748,24.99,1111122 
DISL,ioos:station:DISL:PPTA:1,2012-01-03T14:30:00Z,30.2791,-87.5561,0.753,25.08,1111122 
DISL,ioos:station:DISL:PPTA:1,2012-01-03T15:00:00Z,30.2791,-87.5561,0.752,25.38,1111122 
DISL,ioos:station:DISL:PPTA:1,2012-01-03T15:30:00Z,30.2791,-87.5561,0.743,25.57,1111122 
DISL,ioos:station:DISL:PPTA:1,2012-01-03T16:00:00Z,30.2791,-87.5561,0.776,25.02,1111122 
DISL,ioos:station:DISL:PPTA:1,2012-01-03T16:30:00Z,30.2791,-87.5561,0.785,24.89,1111122 
DISL,ioos:station:DISL:PPTA:1,2012-01-03T17:00:00Z,30.2791,-87.5561,0.813,25.46,1111122 
DISL,ioos:station:DISL:PPTA:1,2012-01-03T17:30:00Z,30.2791,-87.5561,0.822,24.0,1111122 
DISL,ioos:station:DISL:PPTA:1,2012-01-03T18:00:00Z,30.2791,-87.5561,0.84,26.7,1111122 
DISL,ioos:station:DISL:PPTA:1,2012-01-03T18:30:00Z,30.2791,-87.5561,0.85,30.54,1111122 
DISL,ioos:station:DISL:PPTA:1,2012-01-03T19:00:00Z,30.2791,-87.5561,0.87,31.19,1111122 
DISL,ioos:station:DISL:PPTA:1,2012-01-03T19:30:00Z,30.2791,-87.5561,0.879,32.55,1111122 
DISL,ioos:station:DISL:PPTA:1,2012-01-03T20:00:00Z,30.2791,-87.5561,0.898,32.32,1111122 
DISL,ioos:station:DISL:PPTA:1,2012-01-03T20:30:00Z,30.2791,-87.5561,0.907,33.13,1111122 
DISL,ioos:station:DISL:PPTA:1,2012-01-03T21:00:00Z,30.2791,-87.5561,0.909,33.17,1111122 
DISL,ioos:station:DISL:PPTA:1,2012-01-03T21:30:00Z,30.2791,-87.5561,0.905,33.42,1111122 
DISL,ioos:station:DISL:PPTA:1,2012-01-03T22:00:00Z,30.2791,-87.5561,0.911,33.32,1111122 
DISL,ioos:station:DISL:PPTA:1,2012-01-03T22:30:00Z,30.2791,-87.5561,0.922,33.59,1111122 
DISL,ioos:station:DISL:PPTA:1,2012-01-03T23:00:00Z,30.2791,-87.5561,0.92,33.23,1111122 
DISL,ioos:station:DISL:PPTA:1,2012-01-03T23:30:00Z,30.2791,-87.5561,0.933,33.53,1111122 
DISL,ioos:station:DISL:PPTA:1,2012-01-04T00:00:00Z,30.2791,-87.5561,0.93,33.65,1111122 
DISL,ioos:station:DISL:PPTA:1,2012-01-04T00:30:00Z,30.2791,-87.5561,0.929,33.49,1111122 
DISL,ioos:station:DISL:PPTA:1,2012-01-04T01:00:00Z,30.2791,-87.5561,0.928,33.63,1111122 
DISL,ioos:station:DISL:PPTA:1,2012-01-04T01:30:00Z,30.2791,-87.5561,0.921,33.69,1111122 
DISL,ioos:station:DISL:PPTA:1,2012-01-04T02:00:00Z,30.2791,-87.5561,0.915,33.69,1111122 
DISL,ioos:station:DISL:PPTA:1,2012-01-04T02:30:00Z,30.2791,-87.5561,0.899,33.72,1111122 
DISL,ioos:station:DISL:PPTA:1,2012-01-04T03:00:00Z,30.2791,-87.5561,0.871,33.77,1111122 
DISL,ioos:station:DISL:PPTA:1,2012-01-04T03:30:00Z,30.2791,-87.5561,0.857,33.78,1111122 
DISL,ioos:station:DISL:PPTA:1,2012-01-04T04:00:00Z,30.2791,-87.5561,0.829,33.69,1111122 
DISL,ioos:station:DISL:PPTA:1,2012-01-04T04:30:00Z,30.2791,-87.5561,0.811,33.38,1111122 
DISL,ioos:station:DISL:PPTA:1,2012-01-04T05:00:00Z,30.2791,-87.5561,0.791,32.28,1111122 
DISL,ioos:station:DISL:PPTA:1,2012-01-04T05:30:00Z,30.2791,-87.5561,0.774,32.99,1111122 
DISL,ioos:station:DISL:PPTA:1,2012-01-04T06:00:00Z,30.2791,-87.5561,0.783,32.84,1111122 
DISL,ioos:station:DISL:PPTA:1,2012-01-04T06:30:00Z,30.2791,-87.5561,0.774,32.56,1111122 
DISL,ioos:station:DISL:PPTA:1,2012-01-04T07:00:00Z,30.2791,-87.5561,0.763,32.34,1111122 
DISL,ioos:station:DISL:PPTA:1,2012-01-04T07:30:00Z,30.2791,-87.5561,0.764,31.49,1111122 
DISL,ioos:station:DISL:PPTA:1,2012-01-04T08:00:00Z,30.2791,-87.5561,0.742,30.58,1111122 
DISL,ioos:station:DISL:PPTA:1,2012-01-04T08:30:00Z,30.2791,-87.5561,0.736,30.55,1111122 
DISL,ioos:station:DISL:PPTA:1,2012-01-04T09:00:00Z,30.2791,-87.5561,0.732,30.22,1111122 
DISL,ioos:station:DISL:PPTA:1,2012-01-04T09:30:00Z,30.2791,-87.5561,0.727,29.98,1111122 
DISL,ioos:station:DISL:PPTA:1,2012-01-04T10:00:00Z,30.2791,-87.5561,0.725,30.89,1111122 
DISL,ioos:station:DISL:PPTA:1,2012-01-04T10:30:00Z,30.2791,-87.5561,0.726,30.09,1111122 
DISL,ioos:station:DISL:PPTA:1,2012-01-04T11:00:00Z,30.2791,-87.5561,0.723,28.81,1111122 
DISL,ioos:station:DISL:PPTA:1,2012-01-04T11:30:00Z,30.2791,-87.5561,0.755,27.31,1111122 
DISL,ioos:station:DISL:PPTA:1,2012-01-04T12:00:00Z,30.2791,-87.5561,0.758,27.24,1111122 
DISL,ioos:station:DISL:PPTA:1,2012-01-04T12:30:00Z,30.2791,-87.5561,0.798,27.39,1111122 
DISL,ioos:station:DISL:PPTA:1,2012-01-04T13:00:00Z,30.2791,-87.5561,0.805,25.12,1111122 
DISL,ioos:station:DISL:PPTA:1,2012-01-04T13:30:00Z,30.2791,-87.5561,0.792,25.54,1111122 
DISL,ioos:station:DISL:PPTA:1,2012-01-04T14:00:00Z,30.2791,-87.5561,0.811,28.81,1111122 
DISL,ioos:station:DISL:PPTA:1,2012-01-04T14:30:00Z,30.2791,-87.5561,0.833,26.94,1111122 
DISL,ioos:station:DISL:PPTA:1,2012-01-04T15:00:00Z,30.2791,-87.5561,0.857,29.3,1111122 
DISL,ioos:station:DISL:PPTA:1,2012-01-04T15:30:00Z,30.2791,-87.5561,0.866,31.96,1111122 
DISL,ioos:station:DISL:PPTA:1,2012-01-04T16:00:00Z,30.2791,-87.5561,0.863,32.12,1111122 
DISL,ioos:station:DISL:PPTA:1,2012-01-04T16:30:00Z,30.2791,-87.5561,0.877,32.67,1111122 
DISL,ioos:station:DISL:PPTA:1,2012-01-04T17:00:00Z,30.2791,-87.5561,0.894,33.3,1111122 
DISL,ioos:station:DISL:PPTA:1,2012-01-04T17:30:00Z,30.2791,-87.5561,0.917,33.09,1111122 
DISL,ioos:station:DISL:PPTA:1,2012-01-04T18:00:00Z,30.2791,-87.5561,0.941,33.45,1111122 
DISL,ioos:station:DISL:PPTA:1,2012-01-04T18:30:00Z,30.2791,-87.5561,0.947,33.41,1111122 
DISL,ioos:station:DISL:PPTA:1,2012-01-04T19:00:00Z,30.2791,-87.5561,0.983,33.48,1111122 
DISL,ioos:station:DISL:PPTA:1,2012-01-04T19:30:00Z,30.2791,-87.5561,1.004,33.63,1111122 
DISL,ioos:station:DISL:PPTA:1,2012-01-04T20:00:00Z,30.2791,-87.5561,1.024,33.63,1111122 
DISL,ioos:station:DISL:PPTA:1,2012-01-04T20:30:00Z,30.2791,-87.5561,1.057,33.5,1111122 
DISL,ioos:station:DISL:PPTA:1,2012-01-04T21:00:00Z,30.2791,-87.5561,1.066,33.61,1111122 
DISL,ioos:station:DISL:PPTA:1,2012-01-04T21:30:00Z,30.2791,-87.5561,1.065,33.66,1111122 
DISL,ioos:station:DISL:PPTA:1,2012-01-04T22:00:00Z,30.2791,-87.5561,1.073,33.53,1111122 
DISL,ioos:station:DISL:PPTA:1,2012-01-04T22:30:00Z,30.2791,-87.5561,1.087,33.6,1111122 
DISL,ioos:station:DISL:PPTA:1,2012-01-04T23:00:00Z,30.2791,-87.5561,1.093,33.64,1111122 
DISL,ioos:station:DISL:PPTA:1,2012-01-04T23:30:00Z,30.2791,-87.5561,1.1,33.64,1111122 
DISL,ioos:station:DISL:PPTA:1,2012-01-05T00:00:00Z,30.2791,-87.5561,1.115,33.57,1111122 
DISL,ioos:station:DISL:PPTA:1,2012-01-05T00:30:00Z,30.2791,-87.5561,1.13,33.58,1111122 
DISL,ioos:station:DISL:PPTA:1,2012-01-05T01:00:00Z,30.2791,-87.5561,1.111,33.6,1111122 
DISL,ioos:station:DISL:PPTA:1,2012-01-05T01:30:00Z,30.2791,-87.5561,1.109,33.47,1111122 
DISL,ioos:station:DISL:PPTA:1,2012-01-05T02:00:00Z,30.2791,-87.5561,1.097,33.39,1111122 
DISL,ioos:station:DISL:PPTA:1,2012-01-05T02:30:00Z,30.2791,-87.5561,1.099,33.04,1111122 
DISL,ioos:station:DISL:PPTA:1,2012-01-05T03:00:00Z,30.2791,-87.5561,1.065,33.37,1111122 
DISL,ioos:station:DISL:PPTA:1,2012-01-05T03:30:00Z,30.2791,-87.5561,1.032,33.4,1111122 
DISL,ioos:station:DISL:PPTA:1,2012-01-05T04:00:00Z,30.2791,-87.5561,1.008,33.18,1111122 
DISL,ioos:station:DISL:PPTA:1,2012-01-05T04:30:00Z,30.2791,-87.5561,0.971,32.67,1111122 
DISL,ioos:station:DISL:PPTA:1,2012-01-05T05:00:00Z,30.2791,-87.5561,0.931,33.31,1111122 
DISL,ioos:station:DISL:PPTA:1,2012-01-05T05:30:00Z,30.2791,-87.5561,0.923,32.95,1111122 
DISL,ioos:station:DISL:PPTA:1,2012-01-05T06:00:00Z,30.2791,-87.5561,0.903,33.03,1111122 
DISL,ioos:station:DISL:PPTA:1,2012-01-05T06:30:00Z,30.2791,-87.5561,0.888,33.11,1111122 
DISL,ioos:station:DISL:PPTA:1,2012-01-05T07:00:00Z,30.2791,-87.5561,0.87,32.84,1111122 
DISL,ioos:station:DISL:PPTA:1,2012-01-05T07:30:00Z,30.2791,-87.5561,0.852,33.13,1111122 
DISL,ioos:station:DISL:PPTA:1,2012-01-05T08:00:00Z,30.2791,-87.5561,0.843,32.81,1111122 
DISL,ioos:station:DISL:PPTA:1,2012-01-05T08:30:00Z,30.2791,-87.5561,0.824,32.88,1111122 
DISL,ioos:station:DISL:PPTA:1,2012-01-05T09:00:00Z,30.2791,-87.5561,0.819,30.11,1111122 
DISL,ioos:station:DISL:PPTA:1,2012-01-05T09:30:00Z,30.2791,-87.5561,0.795,30.24,1111122 
DISL,ioos:station:DISL:PPTA:1,2012-01-05T10:00:00Z,30.2791,-87.5561,0.783,29.42,1111122 
DISL,ioos:station:DISL:PPTA:1,2012-01-05T10:30:00Z,30.2791,-87.5561,0.779,29.29,1111122 
DISL,ioos:station:DISL:PPTA:1,2012-01-05T11:00:00Z,30.2791,-87.5561,0.778,28.83,1111122 
DISL,ioos:station:DISL:PPTA:1,2012-01-05T11:30:00Z,30.2791,-87.5561,0.778,28.47,1111122 
DISL,ioos:station:DISL:PPTA:1,2012-01-05T12:00:00Z,30.2791,-87.5561,0.789,27.91,1111122 
DISL,ioos:station:DISL:PPTA:1,2012-01-05T12:30:00Z,30.2791,-87.5561,0.802,27.42,1111122 
DISL,ioos:station:DISL:PPTA:1,2012-01-05T13:00:00Z,30.2791,-87.5561,0.818,27.11,1111122 
DISL,ioos:station:DISL:PPTA:1,2012-01-05T13:30:00Z,30.2791,-87.5561,0.827,26.55,1111122 
DISL,ioos:station:DISL:PPTA:1,2012-01-05T14:00:00Z,30.2791,-87.5561,0.831,26.18,1111122 
DISL,ioos:station:DISL:PPTA:1,2012-01-05T14:30:00Z,30.2791,-87.5561,0.855,25.06,1111122 
DISL,ioos:station:DISL:PPTA:1,2012-01-05T15:00:00Z,30.2791,-87.5561,0.854,25.87,1111122 
DISL,ioos:station:DISL:PPTA:1,2012-01-05T15:30:00Z,30.2791,-87.5561,0.867,28.63,1111122 
DISL,ioos:station:DISL:PPTA:1,2012-01-05T16:00:00Z,30.2791,-87.5561,0.871,27.16,1111122 
DISL,ioos:station:DISL:PPTA:1,2012-01-05T16:30:00Z,30.2791,-87.5561,0.882,26.61,1111122 
DISL,ioos:station:DISL:PPTA:1,2012-01-05T17:00:00Z,30.2791,-87.5561,0.888,26.64,1111122 
DISL,ioos:station:DISL:PPTA:1,2012-01-05T17:30:00Z,30.2791,-87.5561,0.902,30.66,1111122 
DISL,ioos:station:DISL:PPTA:1,2012-01-05T18:00:00Z,30.2791,-87.5561,0.934,31.02,1111122 
DISL,ioos:station:DISL:PPTA:1,2012-01-05T18:30:00Z,30.2791,-87.5561,0.951,32.23,1111122 
DISL,ioos:station:DISL:PPTA:1,2012-01-05T19:00:00Z,30.2791,-87.5561,0.982,32.29,1111122 
DISL,ioos:station:DISL:PPTA:1,2012-01-05T19:30:00Z,30.2791,-87.5561,1.012,32.48,1111122 
DISL,ioos:station:DISL:PPTA:1,2012-01-05T20:00:00Z,30.2791,-87.5561,1.036,32.2,1111122 
DISL,ioos:station:DISL:PPTA:1,2012-01-05T20:30:00Z,30.2791,-87.5561,1.055,32.86,1111122 
DISL,ioos:station:DISL:PPTA:1,2012-01-05T21:00:00Z,30.2791,-87.5561,1.066,32.82,1111122 
DISL,ioos:station:DISL:PPTA:1,2012-01-05T21:30:00Z,30.2791,-87.5561,1.088,32.85,1111122 
DISL,ioos:station:DISL:PPTA:1,2012-01-05T22:00:00Z,30.2791,-87.5561,1.093,32.77,1111122 
DISL,ioos:station:DISL:PPTA:1,2012-01-05T22:30:00Z,30.2791,-87.5561,1.106,32.93,1111122 
DISL,ioos:station:DISL:PPTA:1,2012-01-05T23:00:00Z,30.2791,-87.5561,1.113,32.89,1111122 
DISL,ioos:station:DISL:PPTA:1,2012-01-05T23:30:00Z,30.2791,-87.5561,1.125,32.89,1111122 
DISL,ioos:station:DISL:PPTA:1,2012-01-06T00:00:00Z,30.2791,-87.5561,1.137,33.02,1111122 
DISL,ioos:station:DISL:PPTA:1,2012-01-06T00:30:00Z,30.2791,-87.5561,1.153,33.07,1111122 
DISL,ioos:station:DISL:PPTA:1,2012-01-06T01:00:00Z,30.2791,-87.5561,1.17,33.21,1111122 
DISL,ioos:station:DISL:PPTA:1,2012-01-06T01:30:00Z,30.2791,-87.5561,1.163,33.31,1111122 
DISL,ioos:station:DISL:PPTA:1,2012-01-06T02:00:00Z,30.2791,-87.5561,1.16,33.32,1111122 
DISL,ioos:station:DISL:PPTA:1,2012-01-06T02:30:00Z,30.2791,-87.5561,1.147,33.43,1111122 
DISL,ioos:station:DISL:PPTA:1,2012-01-06T03:00:00Z,30.2791,-87.5561,1.127,33.5,1111122 
DISL,ioos:station:DISL:PPTA:1,2012-01-06T03:30:00Z,30.2791,-87.5561,1.109,33.47,1111122 
DISL,ioos:station:DISL:PPTA:1,2012-01-06T04:00:00Z,30.2791,-87.5561,1.07,33.55,1111122 
DISL,ioos:station:DISL:PPTA:1,2012-01-06T04:30:00Z,30.2791,-87.5561,1.05,33.58,1111122 
DISL,ioos:station:DISL:PPTA:1,2012-01-06T05:00:00Z,30.2791,-87.5561,1.017,33.47,1111122 
DISL,ioos:station:DISL:PPTA:1,2012-01-06T05:30:00Z,30.2791,-87.5561,1.006,33.35,1111122 
DISL,ioos:station:DISL:PPTA:1,2012-01-06T06:00:00Z,30.2791,-87.5561,0.984,33.15,1111122 
DISL,ioos:station:DISL:PPTA:1,2012-01-06T06:30:00Z,30.2791,-87.5561,0.975,33.03,1111122 
DISL,ioos:station:DISL:PPTA:1,2012-01-06T07:00:00Z,30.2791,-87.5561,0.964,32.94,1111122 
DISL,ioos:station:DISL:PPTA:1,2012-01-06T07:30:00Z,30.2791,-87.5561,0.943,33.0,1111122 
DISL,ioos:station:DISL:PPTA:1,2012-01-06T08:00:00Z,30.2791,-87.5561,0.93,32.83,1111122 
DISL,ioos:station:DISL:PPTA:1,2012-01-06T08:30:00Z,30.2791,-87.5561,0.914,32.2,1111122 
DISL,ioos:station:DISL:PPTA:1,2012-01-06T09:00:00Z,30.2791,-87.5561,0.895,30.39,1111122 
DISL,ioos:station:DISL:PPTA:1,2012-01-06T09:30:00Z,30.2791,-87.5561,0.879,30.18,1111122 
DISL,ioos:station:DISL:PPTA:1,2012-01-06T10:00:00Z,30.2791,-87.5561,0.866,29.92,1111122 
DISL,ioos:station:DISL:PPTA:1,2012-01-06T10:30:00Z,30.2791,-87.5561,0.854,29.39,1111122 
DISL,ioos:station:DISL:PPTA:1,2012-01-06T11:00:00Z,30.2791,-87.5561,0.855,29.53,1111122 
DISL,ioos:station:DISL:PPTA:1,2012-01-06T11:30:00Z,30.2791,-87.5561,0.85,29.09,1111122 
DISL,ioos:station:DISL:PPTA:1,2012-01-06T12:00:00Z,30.2791,-87.5561,0.86,28.47,1111122 
DISL,ioos:station:DISL:PPTA:1,2012-01-06T12:30:00Z,30.2791,-87.5561,0.872,28.35,1111122 
DISL,ioos:station:DISL:PPTA:1,2012-01-06T13:00:00Z,30.2791,-87.5561,0.883,27.82,1111122 
DISL,ioos:station:DISL:PPTA:1,2012-01-06T13:30:00Z,30.2791,-87.5561,0.893,27.26,1111122 
DISL,ioos:station:DISL:PPTA:1,2012-01-06T14:00:00Z,30.2791,-87.5561,0.913,27.86,1111122 